| time (UTC) | temp C | wind direction | speed KPH | gust KPH | rain 1hr cm | rain 24hr cm | rain mn cm | humidity % | barometer mb |
| 20260510082526 | 18 | 233 | 0.0 | 0.0 | 0.00 | 0.00 | 0.00 | 60 | 1002.5 |
| 20260510082026 | 18 | 233 | 0.0 | 0.0 | 0.00 | 0.00 | 0.00 | 60 | 1002.5 |
| 20260510081536 | 18 | 233 | 0.0 | 0.0 | 0.00 | 0.00 | 0.00 | 60 | 1002.5 |
| 20260510081026 | 18 | 233 | 0.0 | 0.0 | 0.00 | 0.00 | 0.00 | 60 | 1002.7 |
| 20260510080526 | 18 | 233 | 0.0 | 0.0 | 0.00 | 0.00 | 0.00 | 61 | 1002.8 |
| 20260510080025 | 18 | 233 | 0.0 | 0.0 | 0.00 | 0.00 | 0.00 | 61 | 1002.8 |
| 20260510075525 | 18 | 233 | 0.0 | 0.0 | 0.00 | 0.00 | 0.00 | 61 | 1002.8 |
| 20260510075007 | 18 | 233 | 0.0 | 0.0 | 0.00 | 0.00 | 0.00 | 61 | 1002.8 |
| 20260510074509 | 19 | 233 | 0.0 | 0.0 | 0.00 | 0.00 | 0.00 | 60 | 1002.9 |
| 20260510074011 | 19 | 233 | 0.0 | 0.0 | 0.00 | 0.00 | 0.00 | 60 | 1002.9 |
| 20260510073509 | 19 | 233 | 0.0 | 0.0 | 0.00 | 0.00 | 0.00 | 60 | 1003.0 |
| 20260510073006 | 19 | 233 | 0.0 | 0.0 | 0.00 | 0.00 | 0.00 | 59 | 1003.1 |
| 20260510072507 | 19 | 233 | 0.0 | 0.0 | 0.00 | 0.00 | 0.00 | 58 | 1003.2 |
| 20260510072052 | 20 | 233 | 0.0 | 0.0 | 0.00 | 0.00 | 0.00 | 57 | 1003.2 |
| 20260510071549 | 20 | 233 | 0.0 | 0.0 | 0.00 | 0.00 | 0.00 | 56 | 1003.1 |
| 20260510071048 | 20 | 233 | 0.0 | 0.0 | 0.00 | 0.00 | 0.00 | 55 | 1003.0 |
| 20260510070549 | 20 | 229 | 0.0 | 1.6 | 0.00 | 0.00 | 0.00 | 54 | 1003.0 |
| 20260510070050 | 20 | 252 | 0.0 | 1.6 | 0.00 | 0.00 | 0.00 | 51 | 1003.0 |
| 20260510065549 | 21 | 55 | 0.0 | 0.0 | 0.00 | 0.00 | 0.00 | 51 | 1002.8 |
| 20260510065031 | 21 | 120 | 0.0 | 1.6 | 0.00 | 0.00 | 0.00 | 51 | 1002.8 |
| 20260510064553 | 21 | 120 | 0.0 | 1.6 | 0.00 | 0.00 | 0.00 | 51 | 1002.8 |
| 20260510064030 | 21 | 67 | 0.0 | 1.6 | 0.00 | 0.00 | 0.00 | 51 | 1002.8 |
| 20260510063531 | 21 | 117 | 0.0 | 1.6 | 0.00 | 0.00 | 0.00 | 52 | 1002.8 |
| 20260510063039 | 21 | 96 | 0.0 | 0.0 | 0.00 | 0.00 | 0.00 | 53 | 1002.8 |
| 20260510062530 | 21 | 70 | 0.0 | 0.0 | 0.00 | 0.00 | 0.00 | 53 | 1002.8 |
| 20260510062012 | 21 | 57 | 0.0 | 0.0 | 0.00 | 0.00 | 0.00 | 53 | 1002.9 |
| 20260510061524 | 21 | 77 | 0.0 | 0.0 | 0.00 | 0.00 | 0.00 | 54 | 1002.9 |
| 20260510061012 | 21 | 61 | 0.0 | 0.0 | 0.00 | 0.00 | 0.00 | 54 | 1003.1 |
| 20260510060512 | 21 | 67 | 0.0 | 0.0 | 0.00 | 0.00 | 0.00 | 54 | 1003.1 |
| 20260510060026 | 21 | 63 | 0.0 | 0.0 | 0.00 | 0.00 | 0.00 | 54 | 1003.0 |
| 20260510055511 | 21 | 67 | 0.0 | 0.0 | 0.00 | 0.00 | 0.00 | 54 | 1003.2 |
| 20260510055054 | 21 | 67 | 0.0 | 0.0 | 0.00 | 0.00 | 0.00 | 54 | 1003.3 |
| 20260510054553 | 21 | 66 | 0.0 | 0.0 | 0.00 | 0.00 | 0.00 | 55 | 1003.3 |
| 20260510054052 | 21 | 67 | 0.0 | 1.6 | 0.00 | 0.00 | 0.00 | 54 | 1003.3 |
| 20260510053553 | 21 | 46 | 0.0 | 1.6 | 0.00 | 0.00 | 0.00 | 54 | 1003.4 |
| 20260510053053 | 21 | 56 | 0.0 | 3.2 | 0.00 | 0.00 | 0.00 | 54 | 1003.4 |
| 20260510052552 | 21 | 81 | 0.0 | 3.2 | 0.00 | 0.00 | 0.00 | 54 | 1003.5 |
| 20260510052038 | 21 | 91 | 0.0 | 1.6 | 0.00 | 0.00 | 0.00 | 55 | 1003.6 |
| 20260510051535 | 21 | 69 | 0.0 | 3.2 | 0.00 | 0.00 | 0.00 | 54 | 1003.7 |
| 20260510051035 | 21 | 66 | 0.0 | 3.2 | 0.00 | 0.00 | 0.00 | 54 | 1003.8 |
| 20260510050534 | 21 | 61 | 0.0 | 3.2 | 0.00 | 0.00 | 0.00 | 53 | 1003.8 |
| 20260510050034 | 21 | 63 | 0.0 | 1.6 | 0.00 | 0.00 | 0.00 | 53 | 1003.8 |
| 20260510045534 | 21 | 57 | 0.0 | 6.4 | 0.00 | 0.00 | 0.00 | 51 | 1003.9 |
| 20260510045022 | 22 | 63 | 0.0 | 6.4 | 0.00 | 0.00 | 0.00 | 50 | 1004.0 |
| 20260510044515 | 22 | 82 | 0.0 | 3.2 | 0.00 | 0.00 | 0.00 | 49 | 1004.0 |
| 20260510044016 | 22 | 62 | 0.0 | 1.6 | 0.00 | 0.00 | 0.00 | 48 | 1004.0 |
| 20260510043516 | 22 | 63 | 0.0 | 1.6 | 0.00 | 0.00 | 0.00 | 47 | 1004.0 |
| 20260510043014 | 22 | 63 | 0.0 | 0.0 | 0.00 | 0.00 | 0.00 | 48 | 1003.9 |
| 20260510042514 | 22 | 129 | 0.0 | 0.0 | 0.00 | 0.00 | 0.00 | 47 | 1003.9 |
| 20260510042057 | 22 | 67 | 0.0 | 0.0 | 0.00 | 0.00 | 0.00 | 47 | 1003.7 |
| 20260510041606 | 22 | 57 | 0.0 | 0.0 | 0.00 | 0.00 | 0.00 | 48 | 1003.6 |
| 20260510041054 | 22 | 114 | 0.0 | 0.0 | 0.00 | 0.00 | 0.00 | 48 | 1003.5 |
| 20260510040556 | 22 | 114 | 0.0 | 1.6 | 0.00 | 0.00 | 0.00 | 47 | 1003.4 |
| 20260510040054 | 22 | 183 | 0.0 | 1.6 | 0.00 | 0.00 | 0.00 | 47 | 1003.4 |
| 20260510035552 | 22 | 39 | 0.0 | 1.6 | 0.00 | 0.00 | 0.00 | 46 | 1003.4 |
| 20260510035035 | 22 | 74 | 0.0 | 1.6 | 0.00 | 0.00 | 0.00 | 45 | 1003.4 |
| 20260510034534 | 22 | 240 | 0.0 | 0.0 | 0.00 | 0.00 | 0.00 | 41 | 1003.3 |
| 20260510034033 | 22 | 236 | 0.0 | 1.6 | 0.00 | 0.00 | 0.00 | 40 | 1003.0 |
| 20260510033531 | 22 | 245 | 0.0 | 1.6 | 0.00 | 0.00 | 0.00 | 40 | 1002.9 |
| 20260510033031 | 22 | 163 | 0.0 | 1.6 | 0.00 | 0.00 | 0.00 | 40 | 1002.8 |
| 20260510032531 | 22 | 252 | 0.0 | 1.6 | 0.00 | 0.00 | 0.00 | 40 | 1002.8 |
| 20260510032014 | 23 | 236 | 0.0 | 1.6 | 0.00 | 0.00 | 0.00 | 39 | 1002.7 |
| 20260510031514 | 23 | 235 | 0.0 | 1.6 | 0.00 | 0.00 | 0.00 | 39 | 1002.6 |
| 20260510031015 | 23 | 221 | 0.0 | 1.6 | 0.00 | 0.00 | 0.00 | 39 | 1002.5 |
| 20260510030513 | 23 | 226 | 0.0 | 1.6 | 0.00 | 0.00 | 0.00 | 39 | 1002.5 |
| 20260510030013 | 23 | 251 | 0.0 | 1.6 | 0.00 | 0.00 | 0.00 | 39 | 1002.4 |
| 20260510025518 | 23 | 222 | 0.0 | 1.6 | 0.00 | 0.00 | 0.00 | 39 | 1002.4 |
| 20260510025116 | 23 | 258 | 0.0 | 1.6 | 0.00 | 0.00 | 0.00 | 39 | 1002.3 |
| 20260510024557 | 23 | 228 | 0.0 | 1.6 | 0.00 | 0.00 | 0.00 | 38 | 1002.3 |
| 20260510024055 | 23 | 259 | 0.0 | 1.6 | 0.00 | 0.00 | 0.00 | 38 | 1002.2 |
| 20260510023558 | 23 | 231 | 0.0 | 1.6 | 0.00 | 0.00 | 0.00 | 38 | 1002.2 |
| 20260510023055 | 23 | 236 | 0.0 | 1.6 | 0.00 | 0.00 | 0.00 | 38 | 1002.1 |
| 20260510022559 | 23 | 232 | 0.0 | 1.6 | 0.00 | 0.00 | 0.00 | 38 | 1002.0 |
| 20260510022056 | 23 | 232 | 0.0 | 1.6 | 0.00 | 0.00 | 0.00 | 39 | 1001.9 |
| 20260510021535 | 22 | 255 | 0.0 | 1.6 | 0.00 | 0.00 | 0.00 | 39 | 1001.7 |
| 20260510021135 | 22 | 253 | 0.0 | 1.6 | 0.00 | 0.00 | 0.00 | 40 | 1001.7 |
| 20260510020535 | 22 | 236 | 0.0 | 1.6 | 0.00 | 0.00 | 0.00 | 42 | 1001.5 |
| 20260510020035 | 22 | 215 | 0.0 | 1.6 | 0.00 | 0.00 | 0.00 | 42 | 1001.5 |
| 20260510015536 | 22 | 224 | 0.0 | 3.2 | 0.00 | 0.00 | 0.00 | 43 | 1001.5 |
| 20260510015035 | 22 | 241 | 0.0 | 3.2 | 0.00 | 0.00 | 0.00 | 42 | 1001.4 |
| 20260510014528 | 22 | 240 | 0.0 | 1.6 | 0.00 | 0.00 | 0.00 | 42 | 1001.4 |
| 20260510014022 | 22 | 219 | 0.0 | 1.6 | 0.00 | 0.00 | 0.00 | 41 | 1001.4 |
| 20260510013524 | 22 | 214 | 0.0 | 1.6 | 0.00 | 0.00 | 0.00 | 41 | 1001.3 |
| 20260510013023 | 22 | 214 | 0.0 | 1.6 | 0.00 | 0.00 | 0.00 | 41 | 1001.2 |
| 20260510012522 | 22 | 228 | 0.0 | 1.6 | 0.00 | 0.00 | 0.00 | 42 | 1001.1 |
| 20260510012022 | 22 | 226 | 0.0 | 1.6 | 0.00 | 0.00 | 0.00 | 43 | 1000.9 |
| 20260510011523 | 22 | 229 | 0.0 | 1.6 | 0.00 | 0.00 | 0.00 | 43 | 1000.8 |
| 20260510011021 | 22 | 224 | 0.0 | 1.6 | 0.00 | 0.00 | 0.00 | 44 | 1000.7 |
| 20260510010522 | 22 | 219 | 0.0 | 1.6 | 0.00 | 0.00 | 0.00 | 44 | 1000.6 |
| 20260510010022 | 22 | 226 | 0.0 | 1.6 | 0.00 | 0.00 | 0.00 | 45 | 1000.7 |
| 20260510005521 | 22 | 229 | 0.0 | 16.1 | 0.00 | 0.00 | 0.00 | 46 | 1000.6 |
| 20260510005022 | 22 | 200 | 3.2 | 16.1 | 0.00 | 0.00 | 0.00 | 45 | 1000.5 |
| 20260510004521 | 22 | 218 | 0.0 | 1.6 | 0.00 | 0.00 | 0.00 | 43 | 1000.4 |
| 20260510004025 | 22 | 253 | 0.0 | 8.0 | 0.00 | 0.00 | 0.00 | 42 | 1000.3 |
| 20260510003530 | 23 | 248 | 0.0 | 8.0 | 0.00 | 0.00 | 0.00 | 42 | 1000.2 |
| 20260510003020 | 23 | 188 | 0.0 | 1.6 | 0.00 | 0.00 | 0.00 | 41 | 1000.2 |
| 20260510002519 | 23 | 236 | 0.0 | 20.9 | 0.00 | 0.00 | 0.00 | 42 | 1000.0 |
| 20260510002020 | 23 | 250 | 8.0 | 22.5 | 0.00 | 0.00 | 0.00 | 42 | 999.9 |
| 20260510001551 | 23 | 225 | 9.7 | 24.1 | 0.00 | 0.00 | 0.00 | 42 | 999.9 |
| 20260510001019 | 23 | 256 | 12.9 | 24.1 | 0.00 | 0.00 | 0.00 | 42 | 1000.0 |
| 20260510000517 | 23 | 250 | 14.5 | 27.4 | 0.00 | 0.00 | 0.00 | 43 | 1000.1 |
| 20260510000018 | 23 | 255 | 8.0 | 27.4 | 0.00 | 0.00 | 0.00 | 43 | 1000.1 |
| 20260509235619 | 23 | 264 | 3.2 | 24.1 | 0.00 | 0.00 | 0.00 | 42 | 1000.2 |
| 20260509235017 | 24 | 211 | 12.9 | 24.1 | 0.00 | 0.00 | 0.00 | 40 | 1000.2 |
| 20260509234628 | 25 | 219 | 0.0 | 3.2 | 0.00 | 0.00 | 0.00 | 37 | 1000.1 |
| 20260509234102 | 25 | 233 | 0.0 | 1.6 | 0.00 | 0.00 | 0.00 | 34 | 1000.0 |
| 20260509233601 | 25 | 259 | 0.0 | 0.0 | 0.00 | 0.00 | 0.00 | 34 | 999.5 |
| 20260509233100 | 25 | 291 | 0.0 | 0.0 | 0.00 | 0.00 | 0.00 | 34 | 999.4 |
| 20260509232603 | 25 | 288 | 0.0 | 0.0 | 0.00 | 0.00 | 0.00 | 33 | 999.4 |
| 20260509232059 | 25 | 286 | 0.0 | 0.0 | 0.00 | 0.00 | 0.00 | 34 | 999.2 |
| 20260509231601 | 26 | 286 | 0.0 | 0.0 | 0.00 | 0.00 | 0.00 | 33 | 999.1 |
| 20260509231045 | 26 | 346 | 0.0 | 1.6 | 0.00 | 0.00 | 0.00 | 32 | 999.0 |
| 20260509230542 | 26 | 285 | 0.0 | 1.6 | 0.00 | 0.00 | 0.00 | 32 | 998.9 |
| 20260509230043 | 26 | 11 | 0.0 | 1.6 | 0.00 | 0.00 | 0.00 | 31 | 998.9 |
| 20260509225541 | 26 | 246 | 0.0 | 17.7 | 0.00 | 0.00 | 0.00 | 31 | 998.8 |
| 20260509225041 | 26 | 278 | 0.0 | 20.9 | 0.00 | 0.00 | 0.00 | 29 | 998.9 |
| 20260509224526 | 26 | 256 | 0.0 | 1.6 | 0.00 | 0.00 | 0.00 | 30 | 999.0 |
| 20260509224024 | 26 | 249 | 0.0 | 1.6 | 0.00 | 0.00 | 0.00 | 31 | 998.9 |
| 20260509223523 | 26 | 255 | 0.0 | 1.6 | 0.00 | 0.00 | 0.00 | 32 | 998.9 |
| 20260509223024 | 26 | 263 | 0.0 | 3.2 | 0.00 | 0.00 | 0.00 | 30 | 999.0 |
| 20260509222524 | 26 | 262 | 0.0 | 9.7 | 0.00 | 0.00 | 0.00 | 30 | 998.9 |
| 20260509222022 | 26 | 229 | 1.6 | 14.5 | 0.00 | 0.00 | 0.00 | 30 | 998.8 |
| 20260509221505 | 26 | 226 | 6.4 | 25.7 | 0.00 | 0.00 | 0.00 | 31 | 998.8 |
| 20260509221107 | 26 | 246 | 11.3 | 25.7 | 0.00 | 0.00 | 0.00 | 31 | 998.7 |
| 20260509220504 | 27 | 248 | 8.0 | 27.4 | 0.00 | 0.00 | 0.00 | 29 | 998.6 |
| 20260509220006 | 28 | 240 | 8.0 | 27.4 | 0.00 | 0.00 | 0.00 | 25 | 998.5 |
| 20260509215503 | 28 | 239 | 0.0 | 20.9 | 0.00 | 0.00 | 0.00 | 25 | 998.4 |
| 20260509215003 | 27 | 252 | 3.2 | 24.1 | 0.00 | 0.00 | 0.00 | 28 | 998.4 |
| 20260509214550 | 27 | 246 | 12.9 | 24.1 | 0.00 | 0.00 | 0.00 | 29 | 998.5 |
| 20260509214049 | 28 | 246 | 0.0 | 1.6 | 0.00 | 0.00 | 0.00 | 28 | 998.6 |
| 20260509213549 | 28 | 248 | 0.0 | 1.6 | 0.00 | 0.00 | 0.00 | 28 | 998.6 |
| 20260509213051 | 28 | 241 | 0.0 | 1.6 | 0.00 | 0.00 | 0.00 | 27 | 998.7 |
| 20260509212549 | 28 | 221 | 0.0 | 1.6 | 0.00 | 0.00 | 0.00 | 29 | 998.7 |
| 20260509212049 | 28 | 252 | 0.0 | 1.6 | 0.00 | 0.00 | 0.00 | 29 | 998.6 |
| 20260509211552 | 27 | 226 | 0.0 | 1.6 | 0.00 | 0.00 | 0.00 | 28 | 998.6 |
| 20260509211048 | 27 | 218 | 0.0 | 1.6 | 0.00 | 0.00 | 0.00 | 28 | 998.6 |
| 20260509210550 | 28 | 243 | 0.0 | 1.6 | 0.00 | 0.00 | 0.00 | 27 | 998.7 |
| 20260509205549 | 28 | 256 | 0.0 | 3.2 | 0.00 | 0.00 | 0.00 | 26 | 998.7 |
| 20260509205046 | 29 | 240 | 0.0 | 1.6 | 0.00 | 0.00 | 0.00 | 25 | 998.8 |
| 20260509204546 | 30 | 236 | 0.0 | 1.6 | 0.00 | 0.00 | 0.00 | 25 | 998.8 |
| 20260509204044 | 30 | 254 | 0.0 | 19.3 | 0.00 | 0.00 | 0.00 | 25 | 998.9 |
| 20260509203546 | 30 | 256 | 9.7 | 19.3 | 0.00 | 0.00 | 0.00 | 24 | 999.0 |
| 20260509203046 | 29 | 253 | 0.0 | 1.6 | 0.00 | 0.00 | 0.00 | 26 | 999.0 |
| 20260509202543 | 30 | 226 | 0.0 | 1.6 | 0.00 | 0.00 | 0.00 | 25 | 999.2 |
| 20260509202047 | 30 | 239 | 0.0 | 4.8 | 0.00 | 0.00 | 0.00 | 25 | 999.2 |
| 20260509201554 | 30 | 260 | 0.0 | 16.1 | 0.00 | 0.00 | 0.00 | 25 | 999.3 |
| 20260509201039 | 30 | 210 | 1.6 | 16.1 | 0.00 | 0.00 | 0.00 | 26 | 999.4 |
| 20260509200538 | 29 | 259 | 3.2 | 20.9 | 0.00 | 0.00 | 0.00 | 26 | 999.6 |
| 20260509200038 | 29 | 238 | 9.7 | 20.9 | 0.00 | 0.00 | 0.00 | 26 | 999.6 |
| 20260509195541 | 30 | 237 | 0.0 | 20.9 | 0.00 | 0.00 | 0.00 | 26 | 999.8 |
| 20260509195037 | 30 | 252 | 4.8 | 20.9 | 0.00 | 0.00 | 0.00 | 25 | 999.9 |
| 20260509194518 | 30 | 224 | 0.0 | 1.6 | 0.00 | 0.00 | 0.00 | 26 | 999.8 |
| 20260509194016 | 30 | 297 | 0.0 | 1.6 | 0.00 | 0.00 | 0.00 | 27 | 999.9 |
| 20260509193514 | 29 | 236 | 0.0 | 1.6 | 0.00 | 0.00 | 0.00 | 26 | 1000.1 |
| 20260509193014 | 29 | 242 | 0.0 | 1.6 | 0.00 | 0.00 | 0.00 | 26 | 1000.2 |
| 20260509192513 | 29 | 236 | 0.0 | 19.3 | 0.00 | 0.00 | 0.00 | 28 | 1000.2 |
| 20260509192013 | 28 | 255 | 6.4 | 19.3 | 0.00 | 0.00 | 0.00 | 27 | 1000.4 |
| 20260509191613 | 28 | 263 | 0.0 | 6.4 | 0.00 | 0.00 | 0.00 | 27 | 1000.4 |
| 20260509191054 | 29 | 273 | 0.0 | 1.6 | 0.00 | 0.00 | 0.00 | 26 | 1000.5 |
| 20260509190554 | 29 | 273 | 0.0 | 1.6 | 0.00 | 0.00 | 0.00 | 26 | 1000.4 |
| 20260509190107 | 28 | 241 | 0.0 | 1.6 | 0.00 | 0.00 | 0.00 | 28 | 1000.5 |
| 20260509185551 | 28 | 264 | 0.0 | 3.2 | 0.00 | 0.00 | 0.00 | 28 | 1000.7 |
| 20260509185051 | 28 | 246 | 0.0 | 1.6 | 0.00 | 0.00 | 0.00 | 28 | 1000.7 |
| 20260509184556 | 28 | 232 | 0.0 | 3.2 | 0.00 | 0.00 | 0.00 | 26 | 1000.7 |
| 20260509184030 | 28 | 246 | 0.0 | 9.7 | 0.00 | 0.00 | 0.00 | 28 | 1000.7 |
| 20260509183529 | 28 | 239 | 1.6 | 9.7 | 0.00 | 0.00 | 0.00 | 28 | 1000.8 |
| 20260509183033 | 28 | 236 | 0.0 | 3.2 | 0.00 | 0.00 | 0.00 | 29 | 1000.8 |
| 20260509182526 | 28 | 243 | 0.0 | 22.5 | 0.00 | 0.00 | 0.00 | 29 | 1000.9 |
| 20260509182025 | 28 | 221 | 6.4 | 22.5 | 0.00 | 0.00 | 0.00 | 30 | 1001.0 |
| 20260509181525 | 28 | 239 | 8.0 | 20.9 | 0.00 | 0.00 | 0.00 | 30 | 1000.9 |
| 20260509181007 | 27 | 224 | 0.0 | 1.6 | 0.00 | 0.00 | 0.00 | 31 | 1001.0 |
| 20260509180507 | 27 | 246 | 0.0 | 1.6 | 0.00 | 0.00 | 0.00 | 30 | 1001.1 |
| 20260509180012 | 28 | 246 | 0.0 | 1.6 | 0.00 | 0.00 | 0.00 | 30 | 1001.2 |
| 20260509175509 | 27 | 246 | 0.0 | 3.2 | 0.00 | 0.00 | 0.00 | 32 | 1001.2 |
| 20260509175003 | 27 | 246 | 0.0 | 3.2 | 0.00 | 0.00 | 0.00 | 32 | 1001.3 |
| 20260509174502 | 27 | 238 | 0.0 | 8.0 | 0.00 | 0.00 | 0.00 | 34 | 1001.5 |
| 20260509174043 | 27 | 246 | 0.0 | 8.0 | 0.00 | 0.00 | 0.00 | 33 | 1001.5 |
| 20260509173543 | 27 | 163 | 0.0 | 1.6 | 0.00 | 0.00 | 0.00 | 33 | 1001.6 |
| 20260509173048 | 27 | 229 | 0.0 | 1.6 | 0.00 | 0.00 | 0.00 | 32 | 1001.6 |
| 20260509172542 | 27 | 229 | 0.0 | 1.6 | 0.00 | 0.00 | 0.00 | 34 | 1001.7 |
| 20260509172041 | 27 | 226 | 0.0 | 1.6 | 0.00 | 0.00 | 0.00 | 33 | 1001.8 |
| 20260509171543 | 26 | 249 | 0.0 | 3.2 | 0.00 | 0.00 | 0.00 | 35 | 1001.9 |
| 20260509171026 | 26 | 258 | 0.0 | 3.2 | 0.00 | 0.00 | 0.00 | 35 | 1001.9 |
| 20260509170525 | 26 | 232 | 0.0 | 1.6 | 0.00 | 0.00 | 0.00 | 36 | 1002.0 |
| 20260509170025 | 26 | 280 | 0.0 | 1.6 | 0.00 | 0.00 | 0.00 | 35 | 1002.0 |
| 20260509165523 | 26 | 233 | 0.0 | 1.6 | 0.00 | 0.00 | 0.00 | 35 | 1002.1 |
| 20260509165025 | 25 | 245 | 0.0 | 1.6 | 0.00 | 0.00 | 0.00 | 37 | 1002.2 |
| 20260509164522 | 25 | 236 | 0.0 | 1.6 | 0.00 | 0.00 | 0.00 | 37 | 1002.2 |
| 20260509164022 | 25 | 208 | 0.0 | 1.6 | 0.00 | 0.00 | 0.00 | 37 | 1002.2 |
| 20260509163520 | 25 | 246 | 0.0 | 1.6 | 0.00 | 0.00 | 0.00 | 38 | 1002.3 |
| 20260509163038 | 25 | 231 | 0.0 | 1.6 | 0.00 | 0.00 | 0.00 | 38 | 1002.3 |
| 20260509162519 | 25 | 259 | 0.0 | 1.6 | 0.00 | 0.00 | 0.00 | 39 | 1002.3 |
| 20260509162120 | 25 | 236 | 0.0 | 1.6 | 0.00 | 0.00 | 0.00 | 39 | 1002.4 |
| 20260509161524 | 25 | 226 | 0.0 | 1.6 | 0.00 | 0.00 | 0.00 | 39 | 1002.5 |
| 20260509161017 | 24 | 214 | 0.0 | 1.6 | 0.00 | 0.00 | 0.00 | 40 | 1002.4 |
| 20260509160516 | 24 | 246 | 0.0 | 9.7 | 0.00 | 0.00 | 0.00 | 41 | 1002.5 |
| 20260509160015 | 23 | 256 | 1.6 | 9.7 | 0.00 | 0.00 | 0.00 | 41 | 1002.5 |
| 20260509155514 | 23 | 249 | 0.0 | 12.9 | 0.00 | 0.00 | 0.00 | 42 | 1002.5 |
| 20260509155013 | 23 | 264 | 6.4 | 12.9 | 0.00 | 0.00 | 0.00 | 41 | 1002.6 |
| 20260509154513 | 23 | 238 | 0.0 | 1.6 | 0.00 | 0.00 | 0.00 | 42 | 1002.5 |
| 20260509154012 | 23 | 260 | 0.0 | 1.6 | 0.00 | 0.00 | 0.00 | 42 | 1002.7 |
| 20260509153512 | 23 | 250 | 0.0 | 1.6 | 0.00 | 0.00 | 0.00 | 41 | 1002.7 |
| 20260509153020 | 23 | 228 | 0.0 | 1.6 | 0.00 | 0.00 | 0.00 | 41 | 1002.7 |
| 20260509152510 | 23 | 246 | 0.0 | 1.6 | 0.00 | 0.00 | 0.00 | 41 | 1002.5 |
| 20260509152010 | 23 | 260 | 0.0 | 1.6 | 0.00 | 0.00 | 0.00 | 40 | 1002.6 |
| 20260509151508 | 23 | 246 | 0.0 | 1.6 | 0.00 | 0.00 | 0.00 | 41 | 1002.6 |
| 20260509151053 | 23 | 243 | 0.0 | 1.6 | 0.00 | 0.00 | 0.00 | 41 | 1002.6 |
| 20260509150548 | 22 | 260 | 0.0 | 1.6 | 0.00 | 0.00 | 0.00 | 45 | 1002.5 |
| 20260509150103 | 22 | 256 | 0.0 | 0.0 | 0.00 | 0.00 | 0.00 | 46 | 1002.5 |
| 20260509145547 | 22 | 243 | 0.0 | 1.6 | 0.00 | 0.00 | 0.00 | 47 | 1002.6 |
| 20260509145045 | 22 | 265 | 0.0 | 1.6 | 0.00 | 0.00 | 0.00 | 47 | 1002.5 |
| 20260509144547 | 22 | 252 | 0.0 | 1.6 | 0.00 | 0.00 | 0.00 | 47 | 1002.5 |
| 20260509144025 | 21 | 219 | 0.0 | 1.6 | 0.00 | 0.00 | 0.00 | 49 | 1002.5 |
| 20260509143525 | 21 | 222 | 0.0 | 1.6 | 0.00 | 0.00 | 0.00 | 48 | 1002.5 |
| 20260509143033 | 21 | 236 | 0.0 | 1.6 | 0.00 | 0.00 | 0.00 | 49 | 1002.5 |
| 20260509142522 | 21 | 257 | 0.0 | 1.6 | 0.00 | 0.00 | 0.00 | 51 | 1002.6 |
| 20260509142022 | 21 | 257 | 0.0 | 1.6 | 0.00 | 0.00 | 0.00 | 51 | 1002.5 |
| 20260509141526 | 21 | 263 | 0.0 | 1.6 | 0.00 | 0.00 | 0.00 | 51 | 1002.4 |
| 20260509141010 | 21 | 242 | 0.0 | 1.6 | 0.00 | 0.00 | 0.00 | 52 | 1002.4 |
| 20260509140509 | 21 | 273 | 0.0 | 0.0 | 0.00 | 0.00 | 0.00 | 53 | 1002.5 |
| 20260509140009 | 21 | 207 | 0.0 | 0.0 | 0.00 | 0.00 | 0.00 | 53 | 1002.5 |
| 20260509135510 | 21 | 59 | 0.0 | 0.0 | 0.00 | 0.00 | 0.00 | 54 | 1002.6 |
| 20260509135007 | 20 | 59 | 0.0 | 0.0 | 0.00 | 0.00 | 0.00 | 56 | 1002.5 |
| 20260509134506 | 20 | 60 | 0.0 | 0.0 | 0.00 | 0.00 | 0.00 | 58 | 1002.5 |
| 20260509134003 | 19 | 60 | 0.0 | 0.0 | 0.00 | 0.00 | 0.00 | 59 | 1002.4 |
| 20260509133503 | 19 | 60 | 0.0 | 0.0 | 0.00 | 0.00 | 0.00 | 59 | 1002.4 |
| 20260509133003 | 18 | 64 | 0.0 | 0.0 | 0.00 | 0.00 | 0.00 | 60 | 1002.4 |
| 20260509132502 | 18 | 63 | 0.0 | 0.0 | 0.00 | 0.00 | 0.00 | 62 | 1002.4 |
| 20260509132058 | 17 | 63 | 0.0 | 0.0 | 0.00 | 0.00 | 0.00 | 63 | 1002.3 |
| 20260509131559 | 17 | 65 | 0.0 | 0.0 | 0.00 | 0.00 | 0.00 | 65 | 1002.2 |
| 20260509131056 | 17 | 54 | 0.0 | 1.6 | 0.00 | 0.00 | 0.00 | 65 | 1002.1 |
| 20260509130555 | 17 | 63 | 0.0 | 1.6 | 0.00 | 0.00 | 0.00 | 66 | 1002.0 |
| 20260509130057 | -17 | 0.0 | 0.0 | 0.00 | 0.00 | 0.00 | 1001.9 | ||
| 20260509125553 | -17 | 0.0 | 0.0 | 0.00 | 0.00 | 0.00 | 1002.0 | ||
| 20260509125051 | -17 | 0.0 | 0.0 | 0.00 | 0.00 | 0.00 | 1001.9 | ||
| 20260509124556 | -17 | 0.0 | 0.0 | 0.00 | 0.00 | 0.00 | 1001.9 | ||
| 20260509124051 | -17 | 0.0 | 0.0 | 0.00 | 0.00 | 0.00 | 1001.9 | ||
| 20260509123548 | -17 | 0.0 | 0.0 | 0.00 | 0.00 | 0.00 | 1001.8 | ||
| 20260509123046 | -17 | 0.0 | 0.0 | 0.00 | 0.00 | 0.00 | 1001.8 | ||
| 20260509122544 | -17 | 0.0 | 0.0 | 0.00 | 0.00 | 0.00 | 1001.7 | ||
| 20260509122043 | -17 | 0.0 | 0.0 | 0.00 | 0.00 | 0.00 | 1001.7 | ||
| 20260509121551 | -17 | 0.0 | 0.0 | 0.00 | 0.00 | 0.00 | 1001.6 | ||
| 20260509121040 | -17 | 0.0 | 0.0 | 0.00 | 0.00 | 0.00 | 1001.6 | ||
| 20260509120520 | -17 | 0.0 | 0.0 | 0.00 | 0.00 | 0.00 | 1001.6 | ||
| 20260509120019 | -17 | 0.0 | 0.0 | 0.00 | 0.00 | 0.00 | 1001.5 | ||
| 20260509115518 | -17 | 0.0 | 0.0 | 0.00 | 0.00 | 0.00 | 1001.5 | ||
| 20260509115017 | -17 | 0.0 | 0.0 | 0.00 | 0.00 | 0.00 | 1001.5 | ||
| 20260509114536 | -17 | 0.0 | 0.0 | 0.00 | 0.00 | 0.00 | 1001.5 | ||
| 20260509114014 | -17 | 0.0 | 0.0 | 0.00 | 0.00 | 0.00 | 1001.5 | ||
| 20260509113601 | -17 | 0.0 | 0.0 | 0.00 | 0.00 | 0.00 | 1001.4 | ||
| 20260509113102 | -17 | 0.0 | 0.0 | 0.00 | 0.00 | 0.00 | 1001.5 | ||
| 20260509112552 | -17 | 0.0 | 0.0 | 0.00 | 0.00 | 0.00 | 1001.4 | ||
| 20260509112050 | -17 | 0.0 | 0.0 | 0.00 | 0.00 | 0.00 | 1001.4 | ||
| 20260509111549 | -17 | 0.0 | 0.0 | 0.00 | 0.00 | 0.00 | 1001.4 | ||
| 20260509111052 | -17 | 0.0 | 0.0 | 0.00 | 0.00 | 0.00 | 1001.5 | ||
| 20260509110530 | -17 | 0.0 | 0.0 | 0.00 | 0.00 | 0.00 | 1001.4 | ||
| 20260509110028 | -17 | 0.0 | 0.0 | 0.00 | 0.00 | 0.00 | 1001.3 | ||
| 20260509105526 | -17 | 0.0 | 0.0 | 0.00 | 0.00 | 0.00 | 1001.3 | ||
| 20260509105025 | -17 | 0.0 | 0.0 | 0.00 | 0.00 | 0.00 | 1001.3 | ||
| 20260509104523 | -17 | 0.0 | 0.0 | 0.00 | 0.00 | 0.00 | 1001.2 | ||
| 20260509104021 | -17 | 0.0 | 0.0 | 0.00 | 0.00 | 0.00 | 1001.2 | ||
| 20260509103503 | -17 | 0.0 | 0.0 | 0.00 | 0.00 | 0.00 | 1001.2 | ||
| 20260509103002 | -17 | 0.0 | 0.0 | 0.00 | 0.00 | 0.00 | 1001.2 | ||
| 20260509102600 | -17 | 0.0 | 0.0 | 0.00 | 0.00 | 0.00 | 1001.3 | ||
| 20260509102059 | -17 | 0.0 | 0.0 | 0.00 | 0.00 | 0.00 | 1001.3 | ||
| 20260509101558 | -17 | 0.0 | 0.0 | 0.00 | 0.00 | 0.00 | 1001.2 | ||
| 20260509101058 | -17 | 0.0 | 0.0 | 0.00 | 0.00 | 0.00 | 1001.2 | ||
| 20260509100536 | -17 | 0.0 | 0.0 | 0.00 | 0.00 | 0.00 | 1001.2 | ||
| 20260509100035 | -17 | 0.0 | 0.0 | 0.00 | 0.00 | 0.00 | 1001.2 | ||
| 20260509095534 | -17 | 0.0 | 0.0 | 0.00 | 0.00 | 0.00 | 1001.2 | ||
| 20260509095032 | -17 | 0.0 | 0.0 | 0.00 | 0.00 | 0.00 | 1001.2 | ||
| 20260509094543 | -17 | 0.0 | 0.0 | 0.00 | 0.00 | 0.00 | 1001.1 | ||
| 20260509094029 | -17 | 0.0 | 0.0 | 0.00 | 0.00 | 0.00 | 1001.2 | ||
| 20260509093510 | -17 | 0.0 | 0.0 | 0.00 | 0.00 | 0.00 | 1001.2 | ||
| 20260509093009 | -17 | 0.0 | 0.0 | 0.00 | 0.00 | 0.00 | 1001.2 | ||
| 20260509092512 | 17 | 68 | 0.0 | 0.0 | 0.00 | 0.00 | 0.00 | 63 | 1001.1 |
| 20260509092007 | 17 | 68 | 0.0 | 0.0 | 0.00 | 0.00 | 0.00 | 63 | 1001.1 |
| 20260509091506 | 17 | 68 | 0.0 | 0.0 | 0.00 | 0.00 | 0.00 | 63 | 1000.9 |
| 20260509091007 | 17 | 68 | 0.0 | 0.0 | 0.00 | 0.00 | 0.00 | 63 | 1000.9 |
| 20260509090549 | 18 | 68 | 0.0 | 0.0 | 0.00 | 0.00 | 0.00 | 62 | 1001.0 |
| 20260509090101 | 18 | 67 | 0.0 | 0.0 | 0.00 | 0.00 | 0.00 | 62 | 1001.0 |
| 20260509085550 | 18 | 67 | 0.0 | 0.0 | 0.00 | 0.00 | 0.00 | 61 | 1000.9 |
| 20260509085052 | 18 | 68 | 0.0 | 0.0 | 0.00 | 0.00 | 0.00 | 61 | 1000.9 |
| 20260509084550 | 18 | 68 | 0.0 | 0.0 | 0.00 | 0.00 | 0.00 | 61 | 1000.9 |
| 20260509084049 | 18 | 65 | 0.0 | 0.0 | 0.00 | 0.00 | 0.00 | 61 | 1000.9 |
| 20260509083531 | 18 | 65 | 0.0 | 0.0 | 0.00 | 0.00 | 0.00 | 61 | 1001.1 |
| 20260509083044 | 18 | 65 | 0.0 | 0.0 | 0.00 | 0.00 | 0.00 | 61 | 1001.2 |